Home   Weather   Ingelheim am Rhein   Past weeks

Flag for Germany Past Weather in Ingelheim am Rhein, Rhineland-Palatinate, Germany — Yesterday and Last 2 Weeks

Now
32 °F

Clear.


Feels Like: 29 °F
Forecast: 27 / 37 °F
Wind: 3 mph from Northeast

Location: Wiesbaden Airport

Current Time: Dec 3, 2016 at 10:51:20 pm

Latest Report: Dec 3, 2016 at 9:58 pm


Visibility: N/A

Pressure: 30.34 "Hg

Humidity: 69%

Dew Point: 23 °F

Location of Ingelheim am RheinLocation

Past Weather in Ingelheim am Rhein — Graph

°F

Ingelheim am Rhein Temperature Yesterday

Maximum temperature yesterday: 48 °F (at 1:58 pm)
Minimum temperature yesterday: 34 °F (at 11:58 pm)
Average temperature yesterday: 41 °F

High & Low Weather Summary for the Past Weeks

 TemperatureHumidityPressure
High57 °F (Nov 24, 11:58 am)100% (Nov 22, 6:58 am)30.59 "Hg (Nov 22, 6:58 am)
Low22 °F (Nov 30, 6:58 am)49% (Nov 28, 3:58 pm)29.56 "Hg (Nov 20, 12:58 pm)
Average42 °F77%30.11 "Hg
* Reported Nov 18 9:58 pm — Dec 3 9:58 pm, Ingelheim am Rhein, Weather by CustomWeather, © 2016

Note: Actual official high and low records may vary slightly from our data, if they occured in-between our weather recording intervals... More about our weather records

Advertising

Ingelheim am Rhein Weather History for the Previous 24 Hours

Scroll right to see more
 ConditionsComfort  
Time TempWeatherWind HumidityBarometerVisibility
9:58 pm
Sat, Dec 3
32 °FClear.3 mph69%30.34 "HgN/A
8:58 pm30 °FClear.No wind78%30.34 "HgN/A
7:58 pm29 °FClear.No wind77%30.34 "HgN/A
6:58 pm34 °FClear.No wind65%30.33 "HgN/A
5:58 pm36 °FClear.3 mph65%30.31 "HgN/A
4:58 pm37 °FClear.3 mph56%30.30 "HgN/A
3:58 pm39 °FSunny.8 mph53%30.30 "HgN/A
2:58 pm41 °FSunny.9 mph49%30.29 "HgN/A
1:58 pm40 °FSunny.12 mph51%30.31 "HgN/A
12:58 pm40 °FSunny.8 mph58%30.31 "HgN/A
11:58 am38 °FSunny.8 mph65%30.32 "HgN/A
10:58 am36 °FSunny.9 mph69%30.32 "HgN/A
9:58 am32 °FSunny.No wind83%30.32 "HgN/A
8:58 am26 °FSunny.No wind95%30.31 "HgN/A
7:58 am27 °FClear.No wind93%30.29 "HgN/A
6:58 am27 °FClear.No wind93%30.28 "HgN/A
5:58 am30 °FClear.3 mph80%30.27 "HgN/A
4:58 am32 °FClear.3 mph80%30.26 "HgN/A
3:58 am32 °FClear.No wind84%30.26 "HgN/A
2:58 am32 °FClear.6 mph87%30.25 "HgN/A
1:58 am32 °FClear.No wind87%30.25 "HgN/A
12:58 am34 °FClear.5 mph87%30.25 "HgN/A
11:58 pm
Fri, Dec 2
34 °FClear.3 mph87%30.25 "HgN/A
10:58 pm35 °FClear.5 mph84%30.25 "HgN/A
Weather by CustomWeather, © 2016

See weather overviewHow to use our weather pages